WetterOnline ( https://www.wetteronline.de )

Wetter aktuell Danilovgrad

Aktuelles Wetter: Bar (6m)

6-stündlich | Neueste Meldungen
Ortszeit Temperatur Wetter
Di, 28.05. 14:00 24.2° C leicht bewölkt
Di, 28.05. 8:00 22.8° C leicht bewölkt
Di, 28.05. 2:00 17.5° C wolkenlos
Mo, 27.05. 20:00 21.8° C leicht bewölkt
Mo, 27.05. 14:00 24.5° C fast wolkenlos
Mo, 27.05. 8:00 22.3° C wolkig
Mo, 27.05. 2:00 18.0° C wolkig
So, 26.05. 20:00 21.8° C wolkig
Ortszeit Temperatur Wetter
Di, 28.05. 19:00 21.7° C leicht bewölkt
Di, 28.05. 18:00 23.2° C leicht bewölkt
Di, 28.05. 17:00 23.2° C wolkig
Di, 28.05. 16:00 23.8° C leicht bewölkt
Di, 28.05. 15:00 23.6° C wolkig
Di, 28.05. 14:00 24.2° C leicht bewölkt
Ortszeit Relative Feuchte Sichtweite
Di, 28.05. 14:00 69% 20 km
Di, 28.05. 8:00 71% 20 km
Di, 28.05. 2:00 80% 20 km
Mo, 27.05. 20:00 77% 20 km
Mo, 27.05. 14:00 66% 20 km
Mo, 27.05. 8:00 68% 20 km
Mo, 27.05. 2:00 82% 15 km
So, 26.05. 20:00 77% 20 km
Ortszeit Relative Feuchte Sichtweite
Di, 28.05. 19:00 73% 20 km
Di, 28.05. 18:00 69% 20 km
Di, 28.05. 17:00 69% 20 km
Di, 28.05. 16:00 67% 20 km
Di, 28.05. 15:00 69% 20 km
Di, 28.05. 14:00 69% 20 km
Ortszeit Niederschlagsmenge Niederschlagsart
Di, 28.05. 14:00 0.0 l/m2 in 6 Std. -
Di, 28.05. 8:00 0.0 l/m2 in 12 Std. -
Di, 28.05. 2:00 0.0 l/m2 in 6 Std. -
Mo, 27.05. 20:00 0.0 l/m2 in 12 Std. -
Mo, 27.05. 14:00 0.0 l/m2 in 6 Std. -
Mo, 27.05. 8:00 0.4 l/m2 in 12 Std. -
Mo, 27.05. 2:00 0.4 l/m2 in 6 Std. -
So, 26.05. 20:00 0.0 l/m2 in 12 Std. -
Ortszeit Niederschlagsmenge Niederschlagsart
Di, 28.05. 19:00 keine Meldung -
Di, 28.05. 18:00 keine Meldung -
Di, 28.05. 17:00 keine Meldung -
Di, 28.05. 16:00 keine Meldung -
Di, 28.05. 15:00 keine Meldung -
Di, 28.05. 14:00 keine Meldung -
Ortszeit Stärke Spitze Richtung
km/h Bft. km/h Grad Sektor
Di, 28.05. 14:00 11 2 - 250° W
Di, 28.05. 8:00 4 1 - 230° SW
Di, 28.05. 2:00 4 1 - 90° O
Mo, 27.05. 20:00 4 1 - 50° NO
Mo, 27.05. 14:00 18 3 - 250° W
Mo, 27.05. 8:00 7 2 - 290° W
Mo, 27.05. 2:00 7 2 - 50° NO
So, 26.05. 20:00 4 1 - 200° S
Ortszeit Stärke Spitze Richtung
km/h Bft. km/h Grad Sektor
Di, 28.05. 19:00 7 2 - 270° W
Di, 28.05. 18:00 11 2 - 270° W
Di, 28.05. 17:00 7 2 - 250° W
Di, 28.05. 16:00 7 2 - 250° W
Di, 28.05. 15:00 7 2 - 250° W
Di, 28.05. 14:00 11 2 - 250° W
Ortszeit Untergrenze Bedeckung Gattung
total tief tief mittel hoch
Di, 28.05. 14:00 720 m 4/8 2/8 Cu Ac -
Di, 28.05. 8:00 720 m 4/8 1/8 Cu Ac -
Di, 28.05. 2:00 - 0/8 0/8 - - -
Mo, 27.05. 20:00 3000 m 3/8 2/8 - Ac Ci
Mo, 27.05. 14:00 900 m 1/8 1/8 Cu - -
Mo, 27.05. 8:00 1800 m 5/8 1/8 Cu Ac -
Mo, 27.05. 2:00 990 m 7/8 7/8 Cu - -
So, 26.05. 20:00 1200 m 7/8 7/8 Cu - -
Ortszeit Bedeckungsgrad in Achtel und Wolkenuntergrenze
Di, 28.05. 19:00 1(1500m) 5(3000m)
Di, 28.05. 18:00 1(1200m)
Di, 28.05. 17:00 1(1020m) 4(3900m)
Di, 28.05. 16:00 2(810m) 3(3900m)
Di, 28.05. 15:00 3(600m) 3(1200m)
Di, 28.05. 14:00 2(720m) 2(3000m)
Ortszeit Luftdruck NN (hPa) Tendenz (hPa in 3 Std.)
Di, 28.05. 14:00 1015 - 1,1
Di, 28.05. 8:00 1015 + 0,3
Di, 28.05. 2:00 1016 + 0,4
Mo, 27.05. 20:00 1016 - 0,7
Mo, 27.05. 14:00 1018 - 0,2
Mo, 27.05. 8:00 1018 + 0,5
Mo, 27.05. 2:00 1018 + 1,5
So, 26.05. 20:00 1016 + 0,3
Ortszeit Luftdruck NN (hPa) Tendenz (hPa in 3 Std.)
Di, 28.05. 19:00 1014 + 0,1
Di, 28.05. 18:00 1014 - 0,4
Di, 28.05. 17:00 1014 - 0,4
Di, 28.05. 16:00 1014 - 1,0
Di, 28.05. 15:00 1014 - 1,4
Di, 28.05. 14:00 1015 - 1,1
Ortszeit Schneehöhe (cm)
Di, 28.05. 14:00 -
Di, 28.05. 8:00 0
Di, 28.05. 2:00 -
Mo, 27.05. 20:00 -
Mo, 27.05. 14:00 -
Mo, 27.05. 8:00 0
Mo, 27.05. 2:00 -
So, 26.05. 20:00 -
Ortszeit Schneehöhe (cm)
Di, 28.05. 19:00 -
Di, 28.05. 18:00 -
Di, 28.05. 17:00 -
Di, 28.05. 16:00 -
Di, 28.05. 15:00 -
Di, 28.05. 14:00 -
Link zu dieser Seite / Seite empfehlen

Das Wetter in ...